Flag for U.S.A. Weather past 2 weeks in Pueblo, Colorado, U.S.A.

Now
63 °F

Clear.


Feels Like: 63 °F
Forecast: 58 / 82 °F
Wind: No wind

Location: Pueblo Memorial Airport

Current Time: Aug 2, 2014 at 1:10:56 AM

Latest Report: Aug 1, 2014 at 11:53 PM


Visibility: 10 mi

Pressure: 30.09 "Hg

Humidity: 87%

Dew point: 59 °F

Location of PuebloLocation

Historic Weather in Pueblo — Graph

°F

Pueblo temperature yesterday

Maximum temperature yesterday: 79 °F (at 1:53 PM)
Minimum temperature yesterday: 62 °F (at 3:53 AM)
Average temperature yesterday: 67 °F

Past Weeks' High & Low Weather Summary

 TemperatureHumidityPressure
High99 °F (Jul 24, 2:53 PM)100% (Jul 18, 5:59 AM)30.29 "Hg (Jul 18, 5:59 AM)
Low57 °F (Jul 18, 5:59 AM)12% (Jul 19, 2:53 PM)29.69 "Hg (Jul 24, 5:53 PM)
Average74 °F59%29.98 "Hg
* Reported Jul 17 11:53 PM — Aug 1 11:53 PM, Pueblo, Weather by CustomWeather, © 2014

Note: Actual official high and low records may vary slightly from our data, if they occured in-between our weather recording intervals... More about our weather records

Advertising

Pueblo weather history for previous 24 hours

 ConditionsComfort  
Time TempWeatherWind HumidityBarometerVisibility
11:53 PM
Aug 1
63 °FClear.No wind87%30.09 "Hg10 mi
10:53 PM64 °FClear.5 mph81%30.10 "Hg10 mi
9:53 PM64 °FClear.8 mph84%30.10 "Hg10 mi
8:53 PM65 °FSunny.7 mph81%30.11 "Hg10 mi
7:53 PM67 °FSunny.9 mph73%30.09 "Hg10 mi
6:53 PM68 °FPassing clouds.15 mph70%30.09 "Hg10 mi
5:53 PM67 °FSunny.12 mph85%30.09 "Hg10 mi
4:53 PM65 °FLight rain. Overcast.9 mph91%30.11 "Hg10 mi
3:53 PM66 °FLight rain. Mostly cloudy.16 mph90%30.11 "Hg10 mi
3:00 PM76 °FThundershowers. Passing clouds.5 mph48%30.23 "Hg10 mi
1:53 PM79 °FPassing clouds.6 mph44%30.05 "Hg10 mi
12:53 PM77 °FSunny.3 mph48%30.07 "Hg10 mi
11:53 AM74 °FSunny.3 mph52%30.09 "Hg10 mi
10:53 AM73 °FPartly sunny.5 mph55%30.10 "Hg10 mi
9:53 AM71 °FPartly sunny.No wind66%30.11 "Hg10 mi
8:53 AM69 °FPassing clouds.No wind70%30.11 "Hg10 mi
7:53 AM66 °FScattered clouds.No wind81%30.10 "Hg10 mi
6:53 AM63 °FPassing clouds.3 mph90%30.09 "Hg10 mi
5:53 AM62 °FOvercast.No wind93%30.09 "Hg10 mi
4:53 AM62 °FOvercast.3 mph93%30.08 "Hg10 mi
3:53 AM62 °FOvercast.5 mph96%30.08 "Hg10 mi
2:53 AM64 °FPassing clouds.No wind90%30.09 "Hg10 mi
1:53 AM64 °FOvercast.3 mph94%30.10 "Hg10 mi
Weather by CustomWeather, © 2014

See weather overviewHow to use our weather pages